Location: Pinhey's Point
(45.4411°N, 75.9539°W)
Time: 20:51:15
(UTC-04:00)

Iridium 65 - Visible Passes

Search period start: 26 July 2017 00:00
Search period end: 05 August 2017 00:00
Orbit: 776 x 779 km, 86.4° (Epoch: 26 July)

Date Brightness Start Highest point End Pass type
(mag) Time Alt. Az. Time Alt. Az. Time Alt. Az.
27 Jul 8.3 04:56:22 10° NNE 05:00:12 20° ENE 05:04:01 10° ESE visible
28 Jul 8.8 04:24:30 10° NE 04:26:15 12° ENE 04:28:00 10° E visible
30 Jul 7.8 04:56:01 10° NNE 05:00:30 28° ENE 05:04:56 10° SE visible
31 Jul 8.4 04:23:23 10° NNE 04:26:38 16° ENE 04:29:52 10° ESE visible
02 Aug 7.1 04:55:51 10° NNE 05:00:44 39° E 05:05:36 10° SSE visible
03 Aug 8.0 04:22:52 10° NNE 04:26:58 23° ENE 04:31:02 10° SE visible
04 Aug 8.5 03:50:37 10° NE 03:53:03 13° ENE 03:55:27 10° E visible
